BEL4KE HUEN-EBBR

Flight info

Callsign BEL4KE
Flight time N/A
Altitude 36000
Route UVBAX2B UVBAX DCT JUB DCT MLK DCT ORNAT B21 INDOT DCT DIRKA DCT MARON DCT PAL DCT RONAB DCT VELAD DCT ELB DCT BETEN DCT SPEZI DCT DESIP DCT CANNE DCT ZUE T163 KOVAN DCT LIRSU DCT LNO
Aircraft A333/H-SDE3GHIJ2J3J5M1RVWXYZ/LB2D1

Departure

Time 2026-04-25 20:32
Airport Entebbe International Airport (HUEN)

Arrival

Time N/A
Airport Brussels Airport (EBBR)
Time Latitude Longitude Altitude Speed Heading
2026-04-25 20:30 0.05489 32.43675 3799 ft 5 kts 306°
2026-04-25 20:31 0.05488 32.43653 3794 ft 2 kts 244°
2026-04-25 20:31 0.05457 32.43640 3792 ft 7 kts 191°
2026-04-25 20:31 0.05425 32.43641 3791 ft 0 kts 173°
2026-04-25 20:31 0.05324 32.43653 3791 ft 44 kts 173°
2026-04-25 20:32 0.04798 32.43729 3789 ft 108 kts 172°
2026-04-25 20:32 0.03850 32.43857 3776 ft 166 kts 172°
2026-04-25 20:32 0.02576 32.44021 4190 ft 196 kts 173°
2026-04-25 20:32 0.01203 32.44189 5021 ft 206 kts 174°
2026-04-25 20:33 -0.00251 32.44403 5704 ft 218 kts 171°
2026-04-25 20:33 -0.01819 32.44642 5974 ft 239 kts 171°
2026-04-25 20:33 -0.03538 32.44886 6201 ft 260 kts 171°
2026-04-25 20:33 -0.04750 32.45055 6444 ft 271 kts 171°
2026-04-25 20:34 -0.07286 32.45407 7205 ft 278 kts 171°
2026-04-25 20:34 -0.09212 32.45693 7833 ft 281 kts 167°
2026-04-25 20:34 -0.11042 32.46377 8479 ft 284 kts 146°
2026-04-25 20:34 -0.12404 32.47749 9150 ft 285 kts 120°
2026-04-25 20:35 -0.13011 32.49622 9850 ft 287 kts 93°
2026-04-25 20:35 -0.12757 32.51578 10360 ft 295 kts 74°
2026-04-25 20:35 -0.12052 32.53597 10652 ft 313 kts 69°
2026-04-25 20:35 -0.11235 32.55680 10907 ft 330 kts 69°
2026-04-25 20:36 -0.10381 32.57870 11161 ft 346 kts 69°
2026-04-25 20:36 -0.09506 32.60152 11559 ft 356 kts 70°
2026-04-25 20:36 -0.08625 32.62481 12123 ft 360 kts 70°
2026-04-25 20:36 -0.07750 32.64795 12714 ft 363 kts 69°
2026-04-25 20:37 -0.06527 32.66999 13326 ft 366 kts 51°
2026-04-25 20:37 -0.04561 32.68626 13915 ft 372 kts 29°
2026-04-25 20:37 -0.02087 32.69406 14442 ft 379 kts
2026-04-25 20:37 0.00560 32.69258 15012 ft 385 kts 351°
2026-04-25 20:38 0.03199 32.68714 15540 ft 389 kts 350°
2026-04-25 20:38 0.05859 32.68179 16041 ft 392 kts 351°
2026-04-25 20:38 0.08550 32.67700 16559 ft 394 kts 352°
2026-04-25 20:38 0.11234 32.67267 17049 ft 397 kts 353°
2026-04-25 20:39 0.13975 32.66853 17560 ft 400 kts 354°
2026-04-25 20:39 0.16742 32.66451 18047 ft 403 kts 354°
2026-04-25 20:39 0.19525 32.66055 18479 ft 406 kts 354°
2026-04-25 20:39 0.21382 32.65793 18755 ft 408 kts 354°
2026-04-25 20:40 0.25157 32.65265 19275 ft 411 kts 354°
2026-04-25 20:40 0.28002 32.64868 19662 ft 414 kts 354°
2026-04-25 20:40 0.30862 32.64468 20043 ft 417 kts 354°
2026-04-25 20:40 0.33720 32.63888 20419 ft 422 kts 346°
2026-04-25 20:41 0.36465 32.62922 20814 ft 426 kts 341°
2026-04-25 20:41 0.39219 32.61808 21188 ft 428 kts 340°
2026-04-25 20:41 0.41983 32.60668 21548 ft 431 kts 340°
2026-04-25 20:41 0.44762 32.59521 21909 ft 433 kts 340°
2026-04-25 20:42 0.47558 32.58371 22274 ft 436 kts 340°
2026-04-25 20:42 0.50372 32.57217 22635 ft 438 kts 340°
2026-04-25 20:42 0.53165 32.56072 22974 ft 441 kts 340°
2026-04-25 20:42 0.56010 32.54908 23307 ft 443 kts 340°
2026-04-25 20:43 0.58871 32.53737 23642 ft 446 kts 340°
2026-04-25 20:43 0.61750 32.52559 23928 ft 448 kts 340°
2026-04-25 20:43 0.64641 32.51376 24219 ft 450 kts 340°
2026-04-25 20:43 0.67545 32.50188 24532 ft 451 kts 340°
2026-04-25 20:44 0.70453 32.48998 24848 ft 453 kts 340°
2026-04-25 20:44 0.73375 32.47803 25147 ft 455 kts 340°
2026-04-25 20:44 0.76270 32.46618 25430 ft 456 kts 340°
2026-04-25 20:44 0.79212 32.45415 25726 ft 458 kts 340°
2026-04-25 20:45 0.82167 32.44206 26033 ft 460 kts 340°
2026-04-25 20:45 0.85133 32.42992 26337 ft 461 kts 339°
2026-04-25 20:45 0.88060 32.41655 26636 ft 465 kts 333°
2026-04-25 20:45 0.90798 32.39916 26925 ft 468 kts 326°
2026-04-25 20:46 0.93419 32.37961 27231 ft 470 kts 324°
2026-04-25 20:46 0.96019 32.35966 27525 ft 472 kts 324°
2026-04-25 20:46 0.98591 32.33989 27806 ft 474 kts 324°
2026-04-25 20:46 1.01209 32.31981 28130 ft 475 kts 324°
2026-04-25 20:47 1.03832 32.29971 28420 ft 476 kts 324°
2026-04-25 20:47 1.06470 32.27953 28703 ft 478 kts 324°
2026-04-25 20:47 1.09141 32.25964 28981 ft 479 kts 327°
2026-04-25 20:47 1.12018 32.24291 29251 ft 479 kts 336°
2026-04-25 20:48 1.15142 32.23131 29514 ft 479 kts 346°
2026-04-25 20:48 1.18396 32.22395 29776 ft 480 kts 349°
2026-04-25 20:48 1.21687 32.21787 30030 ft 482 kts 351°
2026-04-25 20:48 1.24958 32.21248 30248 ft 484 kts 352°
2026-04-25 20:49 1.28287 32.20723 30439 ft 485 kts 352°
2026-04-25 20:49 1.31627 32.20196 30669 ft 486 kts 352°
2026-04-25 20:49 1.34963 32.19659 30990 ft 485 kts 352°
2026-04-25 20:49 1.38290 32.19113 31306 ft 484 kts 352°
2026-04-25 20:50 1.41608 32.18561 31613 ft 483 kts 352°
2026-04-25 20:50 1.44914 32.18005 31903 ft 482 kts 352°
2026-04-25 20:50 1.48175 32.17454 32205 ft 482 kts 352°
2026-04-25 20:50 1.51480 32.16894 32497 ft 481 kts 352°
2026-04-25 20:51 1.54773 32.16336 32788 ft 480 kts 352°
2026-04-25 20:51 1.58065 32.15779 33073 ft 479 kts 352°
2026-04-25 20:51 1.61351 32.15223 33380 ft 479 kts 352°
2026-04-25 20:51 1.64637 32.14668 33654 ft 478 kts 352°
2026-04-25 20:52 1.67917 32.14114 33921 ft 478 kts 352°
2026-04-25 20:52 1.70088 32.13747 34090 ft 478 kts 352°
2026-04-25 20:52 1.74425 32.13015 34398 ft 477 kts 352°
2026-04-25 20:52 1.77695 32.12462 34628 ft 477 kts 352°
2026-04-25 20:53 1.80968 32.11909 34855 ft 477 kts 352°
2026-04-25 20:53 1.84236 32.11357 35072 ft 476 kts 352°
2026-04-25 20:53 1.87502 32.10805 35304 ft 476 kts 352°
2026-04-25 20:53 1.90763 32.10254 35522 ft 475 kts 352°
2026-04-25 20:54 1.94023 32.09704 35740 ft 475 kts 352°
2026-04-25 20:54 1.97284 32.09153 35941 ft 475 kts 352°
2026-04-25 20:54 2.03776 32.08056 36014 ft 476 kts 352°
2026-04-25 20:55 2.10301 32.06953 35999 ft 476 kts 352°
2026-04-25 20:55 2.16831 32.05849 35998 ft 476 kts 352°
2026-04-25 20:56 2.23374 32.04743 35995 ft 477 kts 352°
2026-04-25 20:56 2.29916 32.03637 35996 ft 477 kts 352°
2026-04-25 20:57 2.36407 32.02540 35991 ft 477 kts 352°
2026-04-25 20:57 2.42946 32.01435 35990 ft 476 kts 352°
2026-04-25 20:58 2.49484 32.00330 35988 ft 476 kts 352°
2026-04-25 20:58 2.56018 31.99225 35987 ft 476 kts 352°
2026-04-25 20:59 2.62513 31.98126 35987 ft 477 kts 352°
2026-04-25 20:59 2.69066 31.97018 35988 ft 478 kts 352°
2026-04-25 21:00 2.74514 31.96097 35979 ft 478 kts 352°
2026-04-25 21:01 2.85418 31.94252 35974 ft 478 kts 352°
2026-04-25 21:01 2.91976 31.93142 35972 ft 478 kts 352°
2026-04-25 21:02 2.98533 31.92033 35967 ft 478 kts 352°
2026-04-25 21:02 3.05090 31.90923 35967 ft 478 kts 352°
2026-04-25 21:03 3.11610 31.89819 35968 ft 478 kts 352°
2026-04-25 21:03 3.18168 31.88708 35967 ft 478 kts 352°
2026-04-25 21:04 3.24726 31.87599 35955 ft 478 kts 352°
2026-04-25 21:04 3.31282 31.86489 35959 ft 478 kts 352°
2026-04-25 21:05 3.37794 31.85386 35950 ft 478 kts 352°
2026-04-25 21:05 3.44348 31.84276 35949 ft 478 kts 352°
2026-04-25 21:06 3.50900 31.83166 35951 ft 478 kts 352°
2026-04-25 21:06 3.57452 31.82056 35948 ft 478 kts 352°
2026-04-25 21:07 3.63984 31.80950 35949 ft 480 kts 352°
2026-04-25 21:07 3.70574 31.79833 35949 ft 481 kts 352°
2026-04-25 21:08 3.77174 31.78714 35949 ft 481 kts 352°
2026-04-25 21:08 3.83774 31.77595 35950 ft 481 kts 352°
2026-04-25 21:09 3.93631 31.75924 35949 ft 481 kts 352°
2026-04-25 21:09 4.00240 31.74803 35949 ft 482 kts 352°
2026-04-25 21:10 4.06856 31.73681 35947 ft 482 kts 352°
2026-04-25 21:10 4.13464 31.72560 35947 ft 482 kts 352°
2026-04-25 21:11 4.20032 31.71445 35941 ft 482 kts 352°
2026-04-25 21:11 4.26648 31.70323 35941 ft 482 kts 352°
2026-04-25 21:12 4.33261 31.69200 35933 ft 482 kts 352°
2026-04-25 21:12 4.38766 31.68266 35933 ft 482 kts 352°
2026-04-25 21:13 4.46456 31.66960 35933 ft 482 kts 352°
2026-04-25 21:13 4.53072 31.65836 35933 ft 482 kts 352°
2026-04-25 21:14 4.59690 31.64712 35929 ft 483 kts 352°
2026-04-25 21:14 4.66270 31.63594 35931 ft 483 kts 352°
2026-04-25 21:15 4.72893 31.62469 35925 ft 483 kts 352°
2026-04-25 21:15 4.79513 31.61344 35925 ft 483 kts 352°
2026-04-25 21:16 4.86145 31.60254 35918 ft 482 kts 355°
2026-04-25 21:16 4.92782 31.60015 35920 ft 482 kts
2026-04-25 21:17 4.99493 31.60058 35916 ft 482 kts
2026-04-25 21:17 5.06203 31.60157 35912 ft 482 kts
2026-04-25 21:18 5.12909 31.60251 35914 ft 482 kts
2026-04-25 21:18 5.19582 31.60331 35918 ft 482 kts
2026-04-25 21:19 5.26295 31.60407 35911 ft 483 kts
2026-04-25 21:19 5.33009 31.60482 35908 ft 483 kts
2026-04-25 21:20 5.38597 31.60545 35909 ft 483 kts
2026-04-25 21:20 5.46403 31.60633 35906 ft 483 kts
2026-04-25 21:21 5.53122 31.60709 35905 ft 483 kts
2026-04-25 21:21 5.59858 31.60785 35903 ft 484 kts
2026-04-25 21:22 5.66597 31.60862 35900 ft 485 kts
2026-04-25 21:22 5.73298 31.60938 35897 ft 485 kts
2026-04-25 21:23 5.80038 31.61014 35897 ft 484 kts
2026-04-25 21:23 5.86780 31.61091 35894 ft 485 kts
2026-04-25 21:24 5.93481 31.61167 35895 ft 485 kts
2026-04-25 21:24 6.00228 31.61243 35892 ft 485 kts
2026-04-25 21:25 6.06980 31.61320 35892 ft 485 kts
2026-04-25 21:25 6.13729 31.61396 35886 ft 485 kts
2026-04-25 21:26 6.20477 31.61473 35886 ft 485 kts
2026-04-25 21:26 6.27178 31.61549 35884 ft 485 kts
2026-04-25 21:27 6.33930 31.61626 35884 ft 485 kts
2026-04-25 21:27 6.40678 31.61703 35884 ft 485 kts
2026-04-25 21:28 6.47430 31.61779 35883 ft 485 kts
2026-04-25 21:28 6.54124 31.61856 35880 ft 484 kts
2026-04-25 21:29 6.60845 31.61932 35882 ft 483 kts
2026-04-25 21:29 6.67567 31.62008 35880 ft 483 kts
2026-04-25 21:30 6.74291 31.62085 35877 ft 483 kts
2026-04-25 21:30 6.79880 31.62149 35876 ft 483 kts
2026-04-25 21:31 6.87694 31.62238 35876 ft 483 kts
2026-04-25 21:31 6.94412 31.62314 35875 ft 483 kts
2026-04-25 21:32 7.01138 31.62391 35875 ft 483 kts
2026-04-25 21:32 7.07816 31.62467 35876 ft 483 kts
2026-04-25 21:33 7.14540 31.62544 35871 ft 483 kts
2026-04-25 21:33 7.21266 31.62620 35873 ft 483 kts
2026-04-25 21:34 7.27941 31.62696 35869 ft 483 kts
2026-04-25 21:34 7.34658 31.62773 35871 ft 483 kts
2026-04-25 21:35 7.41381 31.62850 35869 ft 483 kts
2026-04-25 21:35 7.48100 31.62926 35871 ft 483 kts
2026-04-25 21:36 7.54774 31.63003 35868 ft 483 kts
2026-04-25 21:36 7.61489 31.63079 35868 ft 483 kts
2026-04-25 21:37 7.67070 31.63143 35864 ft 483 kts
2026-04-25 21:37 7.74922 31.63233 35864 ft 483 kts
2026-04-25 21:38 7.81644 31.63310 35863 ft 483 kts
2026-04-25 21:38 7.88326 31.63386 35863 ft 483 kts
2026-04-25 21:39 7.95052 31.63463 35863 ft 483 kts
2026-04-25 21:39 8.01778 31.63540 35862 ft 483 kts
2026-04-25 21:40 8.08503 31.63617 35862 ft 483 kts
2026-04-25 21:40 8.15182 31.63694 35863 ft 483 kts
2026-04-25 21:41 8.21906 31.63771 35866 ft 483 kts
2026-04-25 21:41 8.28634 31.63848 35860 ft 483 kts
2026-04-25 21:42 8.35355 31.63925 35859 ft 483 kts
2026-04-25 21:42 8.42036 31.64002 35863 ft 483 kts
2026-04-25 21:43 8.48767 31.64079 35861 ft 484 kts
2026-04-25 21:43 8.55495 31.64156 35855 ft 484 kts
2026-04-25 21:44 8.62229 31.64233 35858 ft 484 kts
2026-04-25 21:45 8.72282 31.64349 35858 ft 484 kts
2026-04-25 21:45 8.79017 31.64426 35856 ft 484 kts
2026-04-25 21:46 8.85761 31.64504 35857 ft 485 kts
2026-04-25 21:46 8.92506 31.64581 35855 ft 485 kts
2026-04-25 21:47 8.99206 31.64658 35855 ft 485 kts
2026-04-25 21:47 9.05950 31.64736 35853 ft 485 kts
2026-04-25 21:48 9.12701 31.64814 35854 ft 486 kts
2026-04-25 21:48 9.19458 31.64892 35850 ft 486 kts
2026-04-25 21:49 9.26171 31.64969 35850 ft 486 kts
2026-04-25 21:49 9.32929 31.65047 35852 ft 486 kts
2026-04-25 21:50 9.39688 31.65125 35851 ft 486 kts
2026-04-25 21:50 9.46444 31.65203 35848 ft 486 kts
2026-04-25 21:51 9.53151 31.65065 35850 ft 486 kts 353°
2026-04-25 21:51 9.59626 31.63167 35851 ft 487 kts 334°
2026-04-25 21:52 9.65571 31.59853 35852 ft 488 kts 329°
2026-04-25 21:52 9.71342 31.56309 35851 ft 488 kts 328°
2026-04-25 21:53 9.77147 31.52719 35852 ft 489 kts 329°
2026-04-25 21:53 9.82979 31.49151 35849 ft 489 kts 329°
2026-04-25 21:54 9.88816 31.45604 35849 ft 488 kts 329°
2026-04-25 21:54 9.94646 31.42065 35852 ft 489 kts 329°
2026-04-25 21:55 10.00450 31.38540 35854 ft 489 kts 329°
2026-04-25 21:55 10.06279 31.34997 35852 ft 487 kts 329°
2026-04-25 21:56 10.12093 31.31460 35853 ft 487 kts 329°
2026-04-25 21:56 10.17911 31.27920 35857 ft 487 kts 329°
2026-04-25 21:57 10.23678 31.24409 35854 ft 486 kts 329°
2026-04-25 21:57 10.29489 31.20870 35853 ft 488 kts 328°
2026-04-25 21:58 10.35309 31.17324 35856 ft 488 kts 329°
2026-04-25 21:58 10.41117 31.13784 35854 ft 487 kts 328°
2026-04-25 21:59 10.46893 31.10262 35854 ft 488 kts 328°
2026-04-25 21:59 10.52717 31.06708 35854 ft 488 kts 328°
2026-04-25 22:00 10.61432 31.01388 35855 ft 488 kts 328°
2026-04-25 22:00 10.67217 30.97855 35855 ft 488 kts 328°
2026-04-25 22:01 10.73030 30.94303 35854 ft 486 kts 328°
2026-04-25 22:01 10.77834 30.91367 35856 ft 484 kts 328°
2026-04-25 22:02 10.84582 30.87240 35856 ft 484 kts 328°
2026-04-25 22:02 10.90312 30.83734 35856 ft 484 kts 328°
2026-04-25 22:03 10.96081 30.80202 35856 ft 484 kts 328°
2026-04-25 22:03 11.01858 30.76664 35856 ft 485 kts 328°
2026-04-25 22:04 11.07629 30.73128 35867 ft 483 kts 328°
2026-04-25 22:04 11.13347 30.69623 35867 ft 483 kts 328°
2026-04-25 22:05 11.19109 30.66089 35870 ft 483 kts 328°
2026-04-25 22:05 11.24864 30.62558 35869 ft 483 kts 328°
2026-04-25 22:06 11.30621 30.59024 35878 ft 483 kts 328°
2026-04-25 22:06 11.36341 30.55511 35879 ft 483 kts 328°
2026-04-25 22:07 11.41166 30.52546 35875 ft 483 kts 328°
2026-04-25 22:07 11.47846 30.48440 35878 ft 483 kts 328°
2026-04-25 22:08 11.53595 30.44904 35878 ft 483 kts 328°
2026-04-25 22:08 11.59307 30.41389 35875 ft 483 kts 328°
2026-04-25 22:09 11.65058 30.37849 35876 ft 483 kts 328°
2026-04-25 22:09 11.70817 30.34302 35873 ft 483 kts 328°
2026-04-25 22:10 11.76569 30.30757 35875 ft 483 kts 328°
2026-04-25 22:10 11.82278 30.27237 35875 ft 483 kts 328°
2026-04-25 22:11 11.88029 30.23689 35873 ft 483 kts 328°
2026-04-25 22:11 11.93782 30.20139 35872 ft 483 kts 328°
2026-04-25 22:12 11.99528 30.16591 35876 ft 483 kts 328°
2026-04-25 22:12 12.04309 30.13638 35875 ft 483 kts 328°
2026-04-25 22:13 12.10992 30.09507 35875 ft 483 kts 328°
2026-04-25 22:13 12.16738 30.05954 35873 ft 483 kts 328°
2026-04-25 22:14 12.22487 30.02397 35875 ft 483 kts 328°
2026-04-25 22:14 12.28194 29.98864 35873 ft 483 kts 328°
2026-04-25 22:15 12.33938 29.95306 35873 ft 483 kts 328°
2026-04-25 22:16 12.42557 29.89964 35874 ft 483 kts 328°
2026-04-25 22:16 12.48305 29.86400 35873 ft 483 kts 328°
2026-04-25 22:17 12.54018 29.82855 35878 ft 483 kts 328°
2026-04-25 22:17 12.59768 29.79285 35881 ft 484 kts 328°
2026-04-25 22:18 12.65526 29.75709 35880 ft 484 kts 328°
2026-04-25 22:18 12.71281 29.72132 35884 ft 484 kts 328°
2026-04-25 22:19 12.76999 29.68576 35887 ft 484 kts 328°
2026-04-25 22:19 12.82753 29.64997 35889 ft 484 kts 328°
2026-04-25 22:20 12.88509 29.61414 35892 ft 484 kts 328°
2026-04-25 22:20 12.94262 29.57830 35892 ft 484 kts 328°
2026-04-25 22:21 13.00016 29.54245 35892 ft 484 kts 328°
2026-04-25 22:21 13.05731 29.50682 35895 ft 484 kts 328°
2026-04-25 22:22 13.11492 29.47088 35895 ft 485 kts 327°
2026-04-25 22:22 13.17262 29.43486 35895 ft 486 kts 327°
2026-04-25 22:23 13.22997 29.39904 35895 ft 486 kts 327°
2026-04-25 22:23 13.28769 29.36297 35896 ft 486 kts 327°
2026-04-25 22:24 13.34537 29.32691 35896 ft 486 kts 327°
2026-04-25 22:24 13.40310 29.29079 35897 ft 485 kts 327°
2026-04-25 22:25 13.46077 29.25470 35898 ft 486 kts 327°
2026-04-25 22:25 13.51810 29.21879 35893 ft 486 kts 327°
2026-04-25 22:26 13.57582 29.18261 35894 ft 486 kts 327°
2026-04-25 22:26 13.63356 29.14641 35896 ft 486 kts 327°
2026-04-25 22:27 13.69102 29.11037 35894 ft 481 kts 327°
2026-04-25 22:27 13.74770 29.07479 35895 ft 480 kts 327°
2026-04-25 22:28 13.80469 29.03899 35895 ft 480 kts 327°
2026-04-25 22:28 13.86168 29.00317 35895 ft 480 kts 327°
2026-04-25 22:29 13.91827 28.96758 35897 ft 480 kts 327°
2026-04-25 22:29 13.97523 28.93174 35898 ft 480 kts 326°
2026-04-25 22:30 14.06054 28.87802 35901 ft 479 kts 326°
2026-04-25 22:30 14.10774 28.84828 35902 ft 479 kts 326°
2026-04-25 22:31 14.17371 28.80670 35897 ft 477 kts 326°
2026-04-25 22:31 14.23031 28.77099 35897 ft 477 kts 326°
2026-04-25 22:32 14.28689 28.73526 35898 ft 477 kts 326°
2026-04-25 22:32 14.34349 28.69951 35897 ft 477 kts 326°
2026-04-25 22:33 14.39972 28.66397 35897 ft 477 kts 326°
2026-04-25 22:33 14.45631 28.62819 35903 ft 477 kts 326°
2026-04-25 22:34 14.51279 28.59245 35904 ft 476 kts 326°
2026-04-25 22:34 14.56919 28.55674 35902 ft 475 kts 326°
2026-04-25 22:35 14.62515 28.52129 35906 ft 475 kts 326°
2026-04-25 22:35 14.68150 28.48556 35906 ft 475 kts 326°
2026-04-25 22:36 14.73787 28.44981 35907 ft 475 kts 326°
2026-04-25 22:36 14.79419 28.41406 35912 ft 475 kts 325°
2026-04-25 22:37 14.85000 28.37863 35911 ft 473 kts 325°
2026-04-25 22:37 14.90598 28.34305 35911 ft 472 kts 325°
2026-04-25 22:38 14.96182 28.30754 35916 ft 471 kts 325°
2026-04-25 22:38 15.01757 28.27206 35919 ft 471 kts 325°
2026-04-25 22:39 15.07300 28.23677 35919 ft 471 kts 325°
2026-04-25 22:39 15.12882 28.20121 35922 ft 471 kts 324°
2026-04-25 22:40 15.18456 28.16569 35921 ft 470 kts 324°
2026-04-25 22:40 15.24020 28.13019 35922 ft 470 kts 324°
2026-04-25 22:41 15.29546 28.09492 35922 ft 470 kts 324°
2026-04-25 22:41 15.35103 28.05942 35935 ft 469 kts 324°
2026-04-25 22:42 15.40647 28.02401 35924 ft 467 kts 324°
2026-04-25 22:42 15.46166 27.98872 35925 ft 466 kts 324°
2026-04-25 22:43 15.51648 27.95363 35928 ft 466 kts 324°
2026-04-25 22:43 15.57160 27.91833 35924 ft 465 kts 324°
2026-04-25 22:44 15.62671 27.88303 35926 ft 465 kts 324°
2026-04-25 22:44 15.68177 27.84772 35926 ft 466 kts 324°
2026-04-25 22:45 15.73652 27.81260 35931 ft 466 kts 324°
2026-04-25 22:45 15.79158 27.77726 35931 ft 466 kts 324°
2026-04-25 22:46 15.84665 27.74189 35935 ft 465 kts 324°
2026-04-25 22:46 15.90159 27.70658 35935 ft 464 kts 324°
2026-04-25 22:47 15.95607 27.67153 35938 ft 464 kts 324°
2026-04-25 22:47 16.01090 27.63624 35940 ft 464 kts 324°
2026-04-25 22:48 16.06577 27.60090 35934 ft 464 kts 323°
2026-04-25 22:48 16.12064 27.56555 35938 ft 464 kts 323°
2026-04-25 22:49 16.17512 27.53042 35936 ft 464 kts 323°
2026-04-25 22:49 16.22991 27.49506 35937 ft 464 kts 323°
2026-04-25 22:50 16.28472 27.45967 35948 ft 464 kts 324°
2026-04-25 22:50 16.33955 27.42424 35946 ft 464 kts 324°
2026-04-25 22:51 16.39395 27.38906 35942 ft 464 kts 324°
2026-04-25 22:51 16.44876 27.35360 35945 ft 464 kts 324°
2026-04-25 22:52 16.50351 27.31816 35949 ft 464 kts 324°
2026-04-25 22:52 16.54900 27.28869 35943 ft 462 kts 324°
2026-04-25 22:53 16.61243 27.24757 35944 ft 462 kts 324°
2026-04-25 22:53 16.66700 27.21216 35938 ft 462 kts 324°
2026-04-25 22:54 16.72155 27.17675 35936 ft 462 kts 324°
2026-04-25 22:54 16.77612 27.14130 35936 ft 461 kts 323°
2026-04-25 22:55 16.83019 27.10615 35938 ft 461 kts 323°
2026-04-25 22:55 16.88461 27.07075 35938 ft 460 kts 323°
2026-04-25 22:56 16.93885 27.03545 35937 ft 459 kts 323°
2026-04-25 22:56 16.99307 27.00013 35936 ft 459 kts 323°
2026-04-25 22:57 17.04687 26.96505 35935 ft 459 kts 323°
2026-04-25 22:57 17.10107 26.92969 35932 ft 459 kts 323°
2026-04-25 22:58 17.15528 26.89430 35932 ft 459 kts 323°
2026-04-25 22:58 17.20943 26.85893 35937 ft 459 kts 323°
2026-04-25 22:59 17.26317 26.82381 35931 ft 458 kts 323°
2026-04-25 22:59 17.31720 26.78846 35930 ft 458 kts 323°
2026-04-25 23:00 17.37122 26.75309 35934 ft 458 kts 323°
2026-04-25 23:00 17.42524 26.71771 35933 ft 458 kts 323°
2026-04-25 23:01 17.47892 26.68252 35931 ft 458 kts 323°
2026-04-25 23:01 17.53293 26.64709 35937 ft 458 kts 323°
2026-04-25 23:02 17.58696 26.61162 35941 ft 459 kts 323°
2026-04-25 23:02 17.64102 26.57610 35924 ft 459 kts 323°
2026-04-25 23:03 17.69513 26.54053 35927 ft 459 kts 323°
2026-04-25 23:03 17.74896 26.50511 35923 ft 460 kts 323°
2026-04-25 23:04 17.79405 26.47544 35928 ft 460 kts 322°
2026-04-25 23:04 17.85741 26.43370 35928 ft 460 kts 322°
2026-04-25 23:05 17.91126 26.39820 35937 ft 460 kts 322°
2026-04-25 23:05 17.96540 26.36248 35932 ft 459 kts 322°
2026-04-25 23:06 18.01948 26.32677 35931 ft 459 kts 322°
2026-04-25 23:06 18.07358 26.29102 35930 ft 459 kts 322°
2026-04-25 23:07 18.12733 26.25547 35937 ft 459 kts 322°
2026-04-25 23:07 18.18139 26.21971 35932 ft 459 kts 322°
2026-04-25 23:08 18.23537 26.18397 35937 ft 458 kts 322°
2026-04-25 23:08 18.28920 26.14830 35933 ft 457 kts 322°
2026-04-25 23:09 18.34293 26.11266 35928 ft 457 kts 322°
2026-04-25 23:09 18.39634 26.07720 35928 ft 457 kts 322°
2026-04-25 23:10 18.45008 26.04151 35933 ft 457 kts 322°
2026-04-25 23:10 18.50384 26.00577 35933 ft 457 kts 322°
2026-04-25 23:11 18.55720 25.97028 35951 ft 457 kts 321°
2026-04-25 23:11 18.61083 25.93460 35933 ft 454 kts 321°
2026-04-25 23:12 18.66418 25.89906 35934 ft 453 kts 321°
2026-04-25 23:12 18.71750 25.86350 35930 ft 453 kts 321°
2026-04-25 23:13 18.77040 25.82819 35937 ft 453 kts 321°
2026-04-25 23:13 18.82373 25.79258 35933 ft 453 kts 321°
2026-04-25 23:14 18.87703 25.75696 35933 ft 453 kts 321°
2026-04-25 23:14 18.93026 25.72137 35940 ft 453 kts 321°
2026-04-25 23:15 18.98303 25.68607 35938 ft 451 kts 321°
2026-04-25 23:15 19.03604 25.65057 35938 ft 451 kts 321°
2026-04-25 23:16 19.08902 25.61505 35933 ft 450 kts 321°
2026-04-25 23:16 19.14190 25.57959 35945 ft 449 kts 321°
2026-04-25 23:17 19.19431 25.54440 35940 ft 449 kts 320°
2026-04-25 23:17 19.24711 25.50892 35942 ft 450 kts 320°
2026-04-25 23:18 19.29976 25.47354 35938 ft 448 kts 320°
2026-04-25 23:18 19.35229 25.43820 35938 ft 447 kts 320°
2026-04-25 23:19 19.40441 25.40309 35936 ft 447 kts 320°
2026-04-25 23:19 19.45687 25.36773 35936 ft 447 kts 320°
2026-04-25 23:20 19.50936 25.33233 35936 ft 447 kts 320°
2026-04-25 23:20 19.56179 25.29695 35938 ft 446 kts 320°
2026-04-25 23:21 19.61366 25.26192 35936 ft 445 kts 320°
2026-04-25 23:21 19.66582 25.22665 35941 ft 445 kts 320°
2026-04-25 23:22 19.71804 25.19132 35941 ft 445 kts 320°
2026-04-25 23:23 19.79592 25.13858 35943 ft 445 kts 320°
2026-04-25 23:23 19.84809 25.10322 35944 ft 445 kts 320°
2026-04-25 23:24 19.90028 25.06781 35945 ft 445 kts 320°
2026-04-25 23:24 19.95241 25.03242 35950 ft 444 kts 320°
2026-04-25 23:25 20.00571 24.99944 35955 ft 453 kts 328°
2026-04-25 23:25 20.06435 24.97412 35958 ft 456 kts 331°
2026-04-25 23:26 20.12394 24.95052 35953 ft 457 kts 332°
2026-04-25 23:26 20.18368 24.92721 35962 ft 457 kts 331°
2026-04-25 23:27 20.24294 24.90390 35963 ft 457 kts 331°
2026-04-25 23:27 20.30255 24.88031 35964 ft 456 kts 331°
2026-04-25 23:28 20.36195 24.85673 35965 ft 455 kts 331°
2026-04-25 23:28 20.42131 24.83313 35966 ft 455 kts 331°
2026-04-25 23:29 20.48029 24.80967 35972 ft 456 kts 331°
2026-04-25 23:29 20.53968 24.78604 35971 ft 456 kts 331°
2026-04-25 23:30 20.59909 24.76238 35977 ft 456 kts 330°
2026-04-25 23:30 20.65841 24.73874 35973 ft 455 kts 330°
2026-04-25 23:31 20.71729 24.71526 35973 ft 455 kts 330°
2026-04-25 23:31 20.77658 24.69159 35974 ft 455 kts 330°
2026-04-25 23:32 20.83588 24.66789 35977 ft 455 kts 330°
2026-04-25 23:32 20.89513 24.64419 35992 ft 455 kts 330°
2026-04-25 23:33 20.95400 24.62064 35974 ft 454 kts 330°
2026-04-25 23:33 21.01318 24.59693 35972 ft 454 kts 330°
2026-04-25 23:34 21.07237 24.57320 35972 ft 454 kts 330°
2026-04-25 23:34 21.13154 24.54945 35969 ft 454 kts 330°
2026-04-25 23:35 21.19036 24.52583 35969 ft 454 kts 330°
2026-04-25 23:35 21.24953 24.50205 35974 ft 454 kts 330°
2026-04-25 23:36 21.30860 24.47830 35970 ft 453 kts 330°
2026-04-25 23:36 21.36757 24.45456 35969 ft 453 kts 330°
2026-04-25 23:37 21.42617 24.43094 35968 ft 453 kts 330°
2026-04-25 23:37 21.48513 24.40715 35969 ft 453 kts 330°
2026-04-25 23:38 21.54409 24.38335 36013 ft 453 kts 329°
2026-04-25 23:38 21.59303 24.36359 35973 ft 451 kts 329°
2026-04-25 23:39 21.66124 24.33602 35974 ft 450 kts 329°
2026-04-25 23:39 21.71992 24.31226 35974 ft 450 kts 329°
2026-04-25 23:40 21.77852 24.28852 35977 ft 450 kts 329°
2026-04-25 23:40 21.82724 24.26876 35972 ft 450 kts 329°
2026-04-25 23:41 21.89541 24.24110 35997 ft 450 kts 329°
2026-04-25 23:41 21.95395 24.21734 35991 ft 449 kts 329°
2026-04-25 23:42 22.00260 24.19756 35991 ft 450 kts 329°
2026-04-25 23:42 22.06112 24.17375 35991 ft 450 kts 329°
2026-04-25 23:43 22.12918 24.14603 35997 ft 450 kts 329°
2026-04-25 23:43 22.17782 24.12621 35999 ft 450 kts 329°
2026-04-25 23:44 22.23632 24.10235 36001 ft 450 kts 329°
2026-04-25 23:44 22.29486 24.07845 36000 ft 450 kts 329°
2026-04-25 23:45 22.36284 24.05067 36005 ft 449 kts 329°
2026-04-25 23:45 22.41142 24.03081 36008 ft 449 kts 329°
2026-04-25 23:46 22.46985 24.00689 36006 ft 449 kts 329°
2026-04-25 23:46 22.52830 23.98293 36003 ft 449 kts 328°
2026-04-25 23:47 22.58668 23.95900 36020 ft 449 kts 328°
2026-04-25 23:47 22.64465 23.93520 36012 ft 449 kts 328°
2026-04-25 23:48 22.70302 23.91122 36010 ft 449 kts 328°
2026-04-25 23:48 22.76137 23.88722 36014 ft 449 kts 328°
2026-04-25 23:49 22.81972 23.86320 36024 ft 448 kts 328°
2026-04-25 23:49 22.87766 23.83934 36014 ft 448 kts 328°
2026-04-25 23:50 22.93598 23.81529 36016 ft 448 kts 328°
2026-04-25 23:50 22.99434 23.79120 36030 ft 448 kts 328°
2026-04-25 23:51 23.05267 23.76710 36018 ft 448 kts 328°
2026-04-25 23:51 23.11057 23.74316 36033 ft 448 kts 328°
2026-04-25 23:52 23.16884 23.71905 36034 ft 448 kts 328°
2026-04-25 23:52 23.22700 23.69497 36029 ft 447 kts 328°
2026-04-25 23:53 23.28513 23.67086 36037 ft 447 kts 328°
2026-04-25 23:53 23.34292 23.64687 36036 ft 447 kts 328°
2026-04-25 23:54 23.40103 23.62272 36033 ft 447 kts 328°
2026-04-25 23:54 23.45916 23.59855 36060 ft 447 kts 328°
2026-04-25 23:55 23.51721 23.57441 36040 ft 446 kts 327°
2026-04-25 23:55 23.57473 23.55045 36042 ft 445 kts 327°
2026-04-25 23:56 23.63264 23.52629 36044 ft 445 kts 327°
2026-04-25 23:56 23.69053 23.50212 36045 ft 446 kts 327°
2026-04-25 23:57 23.74845 23.47792 36045 ft 446 kts 327°
2026-04-25 23:57 23.80594 23.45388 36046 ft 445 kts 327°
2026-04-25 23:58 23.86368 23.42972 36047 ft 444 kts 327°
2026-04-25 23:58 23.92145 23.40552 36048 ft 444 kts 327°
2026-04-25 23:59 23.97874 23.38149 36047 ft 444 kts 327°
2026-04-25 23:59 24.03636 23.35729 36050 ft 444 kts 327°
2026-04-26 00:00 24.09400 23.33307 36067 ft 444 kts 327°
2026-04-26 00:00 24.15114 23.30821 36058 ft 436 kts 322°
2026-04-26 00:01 24.20503 23.27857 36057 ft 432 kts 321°
2026-04-26 00:01 24.25788 23.24809 36058 ft 431 kts 320°
2026-04-26 00:02 24.31088 23.21719 36059 ft 431 kts 320°
2026-04-26 00:02 24.36390 23.18634 36061 ft 432 kts 320°
2026-04-26 00:03 24.41698 23.15551 36070 ft 432 kts 320°
2026-04-26 00:03 24.46966 23.12493 36056 ft 431 kts 320°
2026-04-26 00:04 24.52264 23.09413 36074 ft 431 kts 320°
2026-04-26 00:04 24.57551 23.06338 36061 ft 430 kts 320°
2026-04-26 00:05 24.62799 23.03281 36058 ft 430 kts 320°
2026-04-26 00:05 24.68079 23.00201 36061 ft 430 kts 320°
2026-04-26 00:06 24.73359 22.97119 36087 ft 430 kts 320°
2026-04-26 00:06 24.78634 22.94039 36069 ft 428 kts 320°
2026-04-26 00:07 24.83856 22.90986 36068 ft 428 kts 320°
2026-04-26 00:07 24.89118 22.87905 36069 ft 428 kts 320°
2026-04-26 00:08 24.94375 22.84825 36064 ft 428 kts 320°
2026-04-26 00:08 24.99630 22.81743 36067 ft 428 kts 320°
2026-04-26 00:09 25.04852 22.78677 36092 ft 428 kts 320°
2026-04-26 00:09 25.10099 22.75596 36070 ft 427 kts 320°
2026-04-26 00:10 25.15334 22.72517 36069 ft 426 kts 320°
2026-04-26 00:10 25.20570 22.69433 36070 ft 426 kts 320°
2026-04-26 00:11 25.25768 22.66369 36073 ft 426 kts 320°
2026-04-26 00:11 25.31000 22.63283 36072 ft 426 kts 320°
2026-04-26 00:12 25.36227 22.60196 36119 ft 426 kts 320°
2026-04-26 00:12 25.41453 22.57109 36073 ft 425 kts 320°
2026-04-26 00:13 25.46625 22.54049 36073 ft 424 kts 320°
2026-04-26 00:13 25.51829 22.50966 36075 ft 424 kts 320°
2026-04-26 00:14 25.57032 22.47881 36077 ft 424 kts 320°
2026-04-26 00:14 25.62234 22.44794 36078 ft 424 kts 320°
2026-04-26 00:15 25.67403 22.41722 36120 ft 425 kts 320°
2026-04-26 00:15 25.72615 22.38624 36077 ft 425 kts 320°
2026-04-26 00:16 25.77822 22.35525 36076 ft 425 kts 320°
2026-04-26 00:16 25.83027 22.32424 36082 ft 425 kts 320°
2026-04-26 00:17 25.88197 22.29341 36077 ft 425 kts 320°
2026-04-26 00:17 25.93399 22.26235 36085 ft 425 kts 320°
2026-04-26 00:18 25.98604 22.23125 36082 ft 425 kts 320°
2026-04-26 00:18 26.03805 22.20014 36081 ft 425 kts 320°
2026-04-26 00:19 26.08971 22.16920 36082 ft 425 kts 320°
2026-04-26 00:19 26.14175 22.13801 36085 ft 425 kts 320°
2026-04-26 00:20 26.19377 22.10680 36084 ft 425 kts 320°
2026-04-26 00:20 26.24583 22.07552 36083 ft 425 kts 320°
2026-04-26 00:21 26.29759 22.04440 36102 ft 426 kts 320°
2026-04-26 00:21 26.34966 22.01307 36089 ft 425 kts 320°
2026-04-26 00:22 26.40167 21.98175 36086 ft 425 kts 320°
2026-04-26 00:22 26.45368 21.95037 36086 ft 425 kts 320°
2026-04-26 00:23 26.50532 21.91919 36091 ft 425 kts 320°
2026-04-26 00:23 26.55727 21.88780 36088 ft 425 kts 320°
2026-04-26 00:24 26.60923 21.85636 36088 ft 425 kts 320°
2026-04-26 00:24 26.66111 21.82495 36089 ft 424 kts 320°
2026-04-26 00:25 26.71261 21.79374 36093 ft 423 kts 320°
2026-04-26 00:25 26.76438 21.76231 36092 ft 424 kts 320°
2026-04-26 00:26 26.81621 21.73081 36090 ft 424 kts 320°
2026-04-26 00:26 26.86803 21.69930 36091 ft 424 kts 320°
2026-04-26 00:27 26.91947 21.66799 36092 ft 424 kts 320°
2026-04-26 00:27 26.97126 21.63642 36088 ft 424 kts 320°
2026-04-26 00:28 27.02299 21.60486 36091 ft 423 kts 320°
2026-04-26 00:28 27.07474 21.57326 36092 ft 423 kts 320°
2026-04-26 00:29 27.12616 21.54182 36088 ft 423 kts 320°
2026-04-26 00:29 27.17788 21.51017 36099 ft 423 kts 320°
2026-04-26 00:30 27.22962 21.47847 36098 ft 423 kts 320°
2026-04-26 00:30 27.28129 21.44678 36103 ft 423 kts 320°
2026-04-26 00:31 27.33264 21.41526 36100 ft 423 kts 320°
2026-04-26 00:31 27.38430 21.38352 36099 ft 423 kts 320°
2026-04-26 00:32 27.43598 21.35172 36100 ft 423 kts 320°
2026-04-26 00:32 27.51306 21.30423 36100 ft 423 kts 320°
2026-04-26 00:33 27.56474 21.27235 36144 ft 423 kts 320°
2026-04-26 00:33 27.61720 21.24170 36101 ft 428 kts 323°
2026-04-26 00:34 27.67154 21.21367 36106 ft 430 kts 325°
2026-04-26 00:34 27.72578 21.18630 36101 ft 430 kts 324°
2026-04-26 00:35 27.78026 21.15846 36106 ft 429 kts 324°
2026-04-26 00:35 27.83458 21.13040 36111 ft 429 kts 324°
2026-04-26 00:36 27.88881 21.10227 36124 ft 428 kts 325°
2026-04-26 00:36 27.94251 21.07440 36110 ft 427 kts 325°
2026-04-26 00:37 27.99643 21.04638 36112 ft 427 kts 325°
2026-04-26 00:37 28.05043 21.01828 36114 ft 427 kts 325°
2026-04-26 00:38 28.10435 20.99019 36111 ft 427 kts 325°
2026-04-26 00:38 28.15791 20.96227 36113 ft 427 kts 325°
2026-04-26 00:39 28.21185 20.93413 36116 ft 426 kts 325°
2026-04-26 00:39 28.26564 20.90604 36116 ft 426 kts 325°
2026-04-26 00:40 28.31936 20.87785 36117 ft 424 kts 324°
2026-04-26 00:40 28.37128 20.84763 36116 ft 421 kts 322°
2026-04-26 00:41 28.42270 20.81586 36116 ft 420 kts 321°
2026-04-26 00:41 28.47405 20.78411 36154 ft 421 kts 322°
2026-04-26 00:42 28.52563 20.75249 36115 ft 421 kts 322°
2026-04-26 00:42 28.57683 20.72122 36123 ft 421 kts 322°
2026-04-26 00:43 28.62843 20.68969 36123 ft 421 kts 322°
2026-04-26 00:43 28.67996 20.65816 36123 ft 421 kts 322°
2026-04-26 00:44 28.73153 20.62657 36119 ft 421 kts 322°
2026-04-26 00:44 28.78273 20.59516 36148 ft 421 kts 322°
2026-04-26 00:45 28.83423 20.56353 36122 ft 421 kts 322°
2026-04-26 00:45 28.88575 20.53185 36121 ft 421 kts 322°
2026-04-26 00:46 28.93696 20.50033 36124 ft 421 kts 322°
2026-04-26 00:46 28.98844 20.46860 36130 ft 421 kts 322°
2026-04-26 00:47 29.03998 20.43681 36124 ft 421 kts 322°
2026-04-26 00:47 29.09146 20.40501 36124 ft 421 kts 322°
2026-04-26 00:48 29.14299 20.37316 36122 ft 421 kts 322°
2026-04-26 00:48 29.19413 20.34151 36121 ft 421 kts 322°
2026-04-26 00:49 29.24564 20.30959 36124 ft 421 kts 322°
2026-04-26 00:49 29.29707 20.27768 36125 ft 421 kts 322°
2026-04-26 00:50 29.34856 20.24570 36121 ft 421 kts 322°
2026-04-26 00:50 29.39969 20.21390 36126 ft 421 kts 323°
2026-04-26 00:51 29.45111 20.18189 36124 ft 421 kts 322°
2026-04-26 00:51 29.50254 20.14984 36120 ft 420 kts 322°
2026-04-26 00:52 29.55359 20.11798 36118 ft 420 kts 323°
2026-04-26 00:52 29.60495 20.08589 36123 ft 420 kts 323°
2026-04-26 00:53 29.65627 20.05378 36121 ft 420 kts 323°
2026-04-26 00:53 29.70759 20.02163 36129 ft 420 kts 323°
2026-04-26 00:54 29.75861 19.98964 36118 ft 421 kts 323°
2026-04-26 00:54 29.81003 19.95736 36118 ft 421 kts 323°
2026-04-26 00:55 29.86147 19.92504 36119 ft 421 kts 323°
2026-04-26 00:55 29.91284 19.89272 36118 ft 421 kts 323°
2026-04-26 00:56 29.96390 19.86054 36116 ft 421 kts 323°
2026-04-26 00:56 30.01531 19.82810 36119 ft 422 kts 324°
2026-04-26 00:57 30.06691 19.79550 36114 ft 423 kts 324°
2026-04-26 00:57 30.11852 19.76288 36112 ft 423 kts 324°
2026-04-26 00:58 30.16978 19.73046 36114 ft 422 kts 324°
2026-04-26 00:58 30.22127 19.69783 36112 ft 422 kts 324°
2026-04-26 00:59 30.27278 19.66514 36112 ft 422 kts 324°
2026-04-26 00:59 30.32429 19.63241 36121 ft 422 kts 324°
2026-04-26 01:00 30.37537 19.59992 36121 ft 422 kts 324°
2026-04-26 01:00 30.42675 19.56708 36106 ft 421 kts 324°
2026-04-26 01:01 30.47766 19.53351 36105 ft 421 kts 323°
2026-04-26 01:01 30.52845 19.49962 36107 ft 421 kts 323°
2026-04-26 01:02 30.57888 19.46597 36133 ft 421 kts 324°
2026-04-26 01:02 30.62965 19.43213 36109 ft 420 kts 324°
2026-04-26 01:03 30.68036 19.39833 36113 ft 420 kts 324°
2026-04-26 01:03 30.73105 19.36450 36109 ft 420 kts 324°
2026-04-26 01:04 30.78139 19.33086 36108 ft 420 kts 324°
2026-04-26 01:04 30.83205 19.29696 36111 ft 420 kts 324°
2026-04-26 01:05 30.88270 19.26303 36144 ft 420 kts 324°
2026-04-26 01:05 30.93338 19.22904 36114 ft 420 kts 325°
2026-04-26 01:06 30.98364 19.19530 36110 ft 420 kts 324°
2026-04-26 01:06 31.03426 19.16127 36111 ft 420 kts 324°
2026-04-26 01:07 31.08484 19.12722 36113 ft 420 kts 324°
2026-04-26 01:07 31.13543 19.09311 36114 ft 420 kts 325°
2026-04-26 01:08 31.18569 19.05919 36125 ft 420 kts 325°
2026-04-26 01:08 31.23626 19.02502 36112 ft 420 kts 325°
2026-04-26 01:09 31.28681 18.99082 36114 ft 420 kts 325°
2026-04-26 01:09 31.33730 18.95662 36114 ft 420 kts 325°
2026-04-26 01:10 31.38749 18.92257 36119 ft 420 kts 325°
2026-04-26 01:10 31.43795 18.88830 36116 ft 419 kts 325°
2026-04-26 01:11 31.48842 18.85398 36120 ft 419 kts 326°
2026-04-26 01:11 31.53884 18.81966 36118 ft 419 kts 326°
2026-04-26 01:12 31.58883 18.78559 36113 ft 418 kts 326°
2026-04-26 01:12 31.63913 18.75124 36112 ft 418 kts 326°
2026-04-26 01:13 31.68949 18.71682 36112 ft 419 kts 326°
2026-04-26 01:13 31.73983 18.68237 36118 ft 419 kts 326°
2026-04-26 01:14 31.78979 18.64814 36126 ft 419 kts 326°
2026-04-26 01:14 31.84007 18.61365 36122 ft 418 kts 326°
2026-04-26 01:15 31.89039 18.57909 36123 ft 418 kts 326°
2026-04-26 01:15 31.94066 18.54452 36127 ft 418 kts 326°
2026-04-26 01:16 31.99090 18.50993 36104 ft 418 kts 326°
2026-04-26 01:16 32.04083 18.47550 36104 ft 419 kts 326°
2026-04-26 01:17 32.09106 18.44083 36108 ft 418 kts 326°
2026-04-26 01:17 32.14133 18.40609 36112 ft 419 kts 326°
2026-04-26 01:18 32.19260 18.37317 36115 ft 420 kts 329°
2026-04-26 01:18 32.24436 18.34195 36118 ft 420 kts 329°
2026-04-26 01:19 32.29646 18.31057 36116 ft 420 kts 329°
2026-04-26 01:19 32.34846 18.27894 36127 ft 420 kts 329°
2026-04-26 01:20 32.40042 18.24713 36111 ft 421 kts 329°
2026-04-26 01:20 32.45206 18.21545 36110 ft 421 kts 329°
2026-04-26 01:21 32.50401 18.18354 36109 ft 421 kts 329°
2026-04-26 01:21 32.55598 18.15159 36127 ft 421 kts 329°
2026-04-26 01:22 32.60790 18.11963 36127 ft 421 kts 329°
2026-04-26 01:22 32.65951 18.08780 36117 ft 422 kts 329°
2026-04-26 01:23 32.71116 18.05453 36113 ft 423 kts 328°
2026-04-26 01:23 32.76247 18.02042 36116 ft 422 kts 327°
2026-04-26 01:24 32.81370 17.98628 36113 ft 422 kts 327°
2026-04-26 01:24 32.86470 17.95239 36113 ft 422 kts 328°
2026-04-26 01:25 32.91601 17.91833 36125 ft 423 kts 328°
2026-04-26 01:25 32.96745 17.88415 36115 ft 424 kts 328°
2026-04-26 01:26 33.01903 17.84982 36116 ft 425 kts 328°
2026-04-26 01:26 33.07059 17.81546 36116 ft 424 kts 328°
2026-04-26 01:27 33.12177 17.78130 36115 ft 424 kts 328°
2026-04-26 01:27 33.17327 17.74689 36116 ft 424 kts 328°
2026-04-26 01:28 33.22479 17.71235 36116 ft 425 kts 328°
2026-04-26 01:28 33.27627 17.67742 36117 ft 426 kts 328°
2026-04-26 01:29 33.32742 17.64256 36116 ft 426 kts 328°
2026-04-26 01:29 33.37889 17.60745 36113 ft 426 kts 328°
2026-04-26 01:30 33.43036 17.57232 36119 ft 426 kts 328°
2026-04-26 01:30 33.48185 17.53714 36122 ft 426 kts 328°
2026-04-26 01:31 33.53308 17.50208 36115 ft 428 kts 328°
2026-04-26 01:31 33.58482 17.46663 36119 ft 428 kts 328°
2026-04-26 01:32 33.63653 17.43115 36117 ft 428 kts 328°
2026-04-26 01:32 33.68827 17.39561 36102 ft 428 kts 328°
2026-04-26 01:33 33.73956 17.36032 36117 ft 428 kts 328°
2026-04-26 01:33 33.79124 17.32471 36111 ft 429 kts 328°
2026-04-26 01:34 33.84309 17.28894 36116 ft 430 kts 328°
2026-04-26 01:34 33.89493 17.25312 36117 ft 430 kts 328°
2026-04-26 01:35 33.94648 17.21746 36111 ft 430 kts 328°
2026-04-26 01:35 33.99828 17.18156 36115 ft 430 kts 328°
2026-04-26 01:36 34.05013 17.14558 36114 ft 430 kts 328°
2026-04-26 01:37 34.12816 17.09133 36117 ft 432 kts 328°
2026-04-26 01:37 34.17992 17.05529 36116 ft 432 kts 328°
2026-04-26 01:38 34.23195 17.01901 36114 ft 431 kts 328°
2026-04-26 01:38 34.28392 16.98271 36115 ft 431 kts 328°
2026-04-26 01:39 34.33435 16.94381 36113 ft 430 kts 320°
2026-04-26 01:39 34.37863 16.89568 36113 ft 431 kts 316°
2026-04-26 01:40 34.42185 16.84520 36113 ft 432 kts 315°
2026-04-26 01:40 34.46477 16.79431 36121 ft 432 kts 315°
2026-04-26 01:41 34.50776 16.74347 36121 ft 432 kts 315°
2026-04-26 01:41 34.55048 16.69307 36109 ft 432 kts 315°
2026-04-26 01:42 34.59348 16.64235 36113 ft 430 kts 315°
2026-04-26 01:42 34.63638 16.59166 36120 ft 431 kts 315°
2026-04-26 01:43 34.67944 16.54068 36118 ft 433 kts 315°
2026-04-26 01:43 34.72227 16.48991 36116 ft 433 kts 315°
2026-04-26 01:44 34.76537 16.43874 36115 ft 433 kts 315°
2026-04-26 01:44 34.80847 16.38749 36117 ft 433 kts 315°
2026-04-26 01:45 34.85151 16.33622 36117 ft 433 kts 315°
2026-04-26 01:45 34.89420 16.28531 36118 ft 432 kts 315°
2026-04-26 01:46 34.93711 16.23404 36117 ft 432 kts 315°
2026-04-26 01:46 34.98003 16.18268 36120 ft 432 kts 315°
2026-04-26 01:47 35.02285 16.13136 36120 ft 432 kts 315°
2026-04-26 01:47 35.06542 16.08028 36116 ft 432 kts 315°
2026-04-26 01:48 35.10827 16.02876 36121 ft 432 kts 315°
2026-04-26 01:48 35.15104 15.97727 36116 ft 431 kts 314°
2026-04-26 01:49 35.19360 15.92594 36128 ft 429 kts 314°
2026-04-26 01:49 35.23588 15.87488 36124 ft 431 kts 314°
2026-04-26 01:50 35.27858 15.82322 36121 ft 432 kts 314°
2026-04-26 01:50 35.32132 15.77145 36122 ft 432 kts 314°
2026-04-26 01:51 35.36402 15.71963 36121 ft 432 kts 314°
2026-04-26 01:51 35.40670 15.66776 36121 ft 432 kts 314°
2026-04-26 01:52 35.44908 15.61618 36119 ft 431 kts 314°